Location: 81360 Arifat, France
(43.7204°N, 2.3408°E)
Time: 08:09:06
(UTC+01:00)

Courier 1B - Visible Passes

Search period start: 07 December 2025 00:00
Search period end: 17 December 2025 00:00
Orbit: 962 x 1208 km, 28.3° (Epoch: 06 December)

Date Brightness Start Highest point End Pass type
(mag) Time Alt. Az. Time Alt. Az. Time Alt. Az.
07 Dec 9.3 05:12:08 19° S 05:12:08 19° S 05:16:12 10° SE visible
07 Dec 9.8 07:03:14 10° SSW 07:04:34 11° SSW 07:05:56 10° S visible
08 Dec 9.9 04:21:42 13° SSE 04:21:42 13° SSE 04:22:41 10° SE visible
08 Dec 9.5 06:08:35 11° SW 06:10:59 13° SSW 06:13:52 10° S visible
09 Dec 9.5 05:18:10 15° S 05:18:10 15° S 05:21:00 10° SSE visible
10 Dec 10.0 04:27:45 10° SSE 04:27:45 10° SSE 04:27:52 10° SSE visible
